SWARM B

Last updated on Fri Sep 11 2026 00:03:31 GMT+0000 (Coordinated Universal Time)

1 39451U 13067A 26253.55463235 .00002422 00000+0 84735-4 0 9990 2 39451 87.7451 316.3972 0003453 92.3207 267.8438 15.29019142696288
UTC large
Height (km)
Speed (km/s)
/
Latitude / Longitude
Inclination (degrees)
Orbital Period (minutes)
Azimuth
Elevation
Range (km)
Doppler Factor

Next 0 passes for location: London (51.5072 / 0.1276)

No passes found over London.
SWARM B